カタログに戻る

GLOBALSTAR M003

運用中通信LEO
NORAD 25165·PAYLOAD·🇺🇸 United States

打ち上げ Feb 14, 1998 から Cape Canaveral Space Force Station

Loading…

次のパス (今後24時間)

TLE

最新Source: Space-Track

元期: Sep 13, 2026, 17:12 UTC

1 25165U 98008D   26256.71734598 -.00000135  00000-0 -48136-3 0  9995
2 25165  51.9814 352.2485 0008711 124.1839  42.3086 12.11994355288217

AllMySatでGLOBALSTAR M003をリアルタイム追跡

Download on the App Store